Flag for Liberia Weather past 2 weeks in Kakata, Liberia

Now
77 °F

Passing clouds.


Feels Like: 78 °F
Forecast: 72 / 89 °F
Wind: No wind

Location: Roberts Field

Current Time: May 25, 2015 at 5:43:17 AM

Latest Report: May 25, 2015 at 4:30 AM


Visibility: N/A

Pressure: 29.89 "Hg

Humidity: 94%

Dew point: 75 °F

Location of KakataLocation

Historic Weather in Kakata — Graph

°F

Kakata temperature yesterday

Maximum temperature yesterday: 86 °F (at 1:00 PM)
Minimum temperature yesterday: 72 °F (at 6:30 AM)
Average temperature yesterday: 79 °F

Past Weeks' High & Low Weather Summary

 TemperatureHumidityPressure
High93 °F (May 18, 1:30 PM)100% (May 13, 2:00 AM)29.98 "Hg (May 13, 2:00 AM)
Low72 °F (May 15, 6:00 AM)56% (May 18, 1:30 PM)29.80 "Hg (May 11, 5:00 PM)
Average82 °F84%29.89 "Hg
* Reported May 10 4:00 AM — May 25 4:30 AM, Kakata, Weather by CustomWeather, © 2015

Note: Actual official high and low records may vary slightly from our data, if they occured in-between our weather recording intervals... More about our weather records

Advertising

Kakata weather history for previous 24 hours

 ConditionsComfort  
Time TempWeatherWind HumidityBarometerVisibility
4:30 AM
Mon, May 25
77 °FPassing clouds.No wind94%29.89 "HgN/A
4:00 AM77 °FPassing clouds.No wind94%29.89 "HgN/A
3:30 AM77 °FPassing clouds.No wind94%29.89 "HgN/A
1:30 AM77 °FPassing clouds.No wind94%29.92 "HgN/A
1:00 AM77 °FRain. Passing clouds.No wind94%29.92 "HgN/A
12:30 AM77 °FLight rain. Passing clouds.No wind94%29.95 "Hg6 mi
12:00 AM77 °FLight rain. Passing clouds.No wind94%29.95 "Hg6 mi
11:00 PM
Sun, May 24
79 °FPassing clouds.No wind94%29.95 "HgN/A
10:00 PM79 °FPassing clouds.No wind94%29.95 "HgN/A
9:00 PM79 °FPassing clouds.No wind94%29.92 "HgN/A
8:00 PM81 °FPassing clouds.No wind89%29.89 "HgN/A
7:30 PM81 °FPassing clouds.No wind89%29.89 "HgN/A
4:00 PM86 °FPartly sunny.6 mph75%29.86 "HgN/A
3:00 PM86 °FPartly sunny.No wind75%29.89 "HgN/A
2:30 PM86 °FPartly sunny.No wind75%29.92 "HgN/A
2:00 PM86 °FPartly sunny.6 mph75%29.92 "HgN/A
1:30 PM84 °FPartly sunny.No wind79%29.92 "HgN/A
1:00 PM86 °FBroken clouds.No wind75%29.95 "HgN/A
12:30 PM84 °FBroken clouds.No wind79%29.95 "HgN/A
12:00 PM84 °FScattered clouds.No wind74%29.95 "HgN/A
11:30 AM82 °FScattered clouds.No wind79%29.95 "HgN/A
11:00 AM81 °FScattered clouds.No wind84%29.95 "HgN/A
10:30 AM81 °FScattered clouds.No wind84%29.95 "HgN/A
10:00 AM79 °FScattered clouds.No wind84%29.95 "HgN/A
9:30 AM77 °FPartly sunny.No wind94%29.95 "HgN/A
9:00 AM75 °FPartly sunny.No wind94%29.95 "HgN/A
8:30 AM73 °FPartly sunny.No wind94%29.92 "HgN/A
8:00 AM73 °FPartly sunny.No wind94%29.89 "HgN/A
7:30 AM73 °FPartly sunny.3 mph94%29.86 "HgN/A
7:00 AM72 °FPassing clouds.No wind100%29.86 "HgN/A
6:30 AM72 °FPassing clouds.No wind100%29.89 "HgN/A
5:00 AM73 °FPassing clouds.No wind94%29.95 "Hg6 mi
Weather by CustomWeather, © 2015

See weather overviewHow to use our weather pages